Starlink 35653

operational
NORAD ID: 66122 Int'l Des: 2025-237 Owner: SPXS Country: US Constellation: starlink
LEOCIRCULAR

Über Starlink 35653

Beschreibung wird geladen...

Live-Position

3D-Globus wird geladen...

Nächste Überflüge

Höhenverlauf

Altitude vs Time

uPlot chart will show altitude changes over time

Zweizeiliger Elementsatz

1 66122U 25237J 25349.78320145 -.01295895 00000-0 -38866-1 0 9992
2 66122 53.1612 72.9395 0013343 122.3833 237.8464 15.37058166 9711
Epoch: 15. Dez. 2025 • Age: 31 hours

Aktueller Status

Höhe 490.9 km
Geschwindigkeit 7.62 km/s
Subsatellitenpunkt -52.84°S, 143.97°W
Startdatum 22. Okt. 2025
Alter 0.1 years
Typ internet

Technische Details

Klassifizierung Payload
Masse 575.00 kg
Trockenmasse 530.00 kg
Gesamtmasse 575.00 kg
Länge 0.30 m
Durchmesser 4.10 m
Spannweite 29.00 m
Form Box + pan
Hersteller SPXS
Bus-Typ Starlink V2MO
Phasenstatus In Orbit
Besitzer/Staat SPXS/US

Große Konstellationen

Loading constellations...